Погода в Николаевском

Россия / Забайкальский край     51°03′03″N   111°46′19″E
темп.,
°C
ветер,
м/с
пор.,
м/с
влажн.,
%
обл.,
%
осадки,
мм/ч
давл.,
гПа
погр.,
м
11 мая, вт
вт1100:00+2зюз2387100 0.0 101052
03:00+1зюз2292100 0.0 101042
06:00+1з2498100 0.2 1010196
09:00+2сз2393100 1.0 1010331
12:00+4сз3787100 1.9 1010667
15:00+8сз71063100 2.5 10081379
18:00+9сз8105798 0.8 10071296
21:00+5зсз496843 0.9 1010228
12 мая, ср
ср1200:00+2зюз33832 0.0 101252
03:00−1юз34900 0.0 101378
06:00−1юз34930 0.0 101361
09:00+7з59627 0.0 10101039
12:00+11зсз7104325 0.1 10072136
15:00+12зсз7104176 0.3 10062147
18:00+11зсз8114894 0.2 10061738
21:00+6зсз376588 0.4 1009130
13 мая, чт
чт1300:00+3юз22654 0.0 101132
03:00+1зюз2466100 0.0 1012131
06:00+1зюз2667100 0.0 1011223
09:00+3зсз6845100 0.0 10111234
12:00+6з6932100 0.0 10092114
15:00+10зсз71026100 0.0 10063077
18:00+8сз892599 0.0 10072856
21:00+4сз59400 0.0 1009338
14 мая, пт
пт1400:000з410620 0.0 1012308
03:00−2зюз377599 0.0 1013140
06:00−2з258487 0.0 1014170
09:00+4зсз355476 0.0 10131064
12:00+7сз5643100 0.1 10111885
15:00+10сз5636100 0.2 10102603
18:00+10сз4533100 0.0 10092250
21:00+6з224813 0.0 101115
15 мая, сб
сб1500:00+2зюз22610 0.0 101523
03:000юз22710 0.0 101627
06:00−1юз33770 0.0 101837
09:00+7зюз36420 0.0 1015498
12:00+15з57220 0.0 10112369
15:00+18зюз67185 0.0 10083429
18:00+17зюз67185 0.0 10073314
21:00+3зсз71377100 1.3 10101121